Flag for U.S.A. Weather past 2 weeks in Fayetteville, North Carolina, U.S.A.

Now
82 °F

Clear.


Feels Like: 88 °F
Forecast: 74 / 96 °F
Wind: 5 mph from South

Location: Fayetteville Regional Airport

Current Time: Aug 4, 2015 at 10:43:16 PM

Latest Report: Aug 4, 2015 at 9:53 PM


Visibility: 10 mi

Pressure: 29.93 "Hg

Humidity: 77%

Dew point: 74 °F

Location of FayettevilleLocation

Historic Weather in Fayetteville — Graph

°F

Fayetteville temperature yesterday

Maximum temperature yesterday: 94 °F (at 3:53 PM)
Minimum temperature yesterday: 73 °F (at 4:53 AM)
Average temperature yesterday: 82 °F

Past Weeks' High & Low Weather Summary

 TemperatureHumidityPressure
High97 °F (Jul 21, 1:53 PM)97% (Jul 27, 5:53 AM)30.01 "Hg (Jul 27, 5:53 AM)
Low65 °F (Jul 26, 5:53 AM)26% (Aug 2, 3:53 PM)29.66 "Hg (Jul 21, 6:53 PM)
Average82 °F68%29.90 "Hg
* Reported Jul 20 8:53 PM — Aug 4 8:53 PM, Fayetteville, Weather by CustomWeather, © 2015

Note: Actual official high and low records may vary slightly from our data, if they occured in-between our weather recording intervals... More about our weather records

Advertising

Fayetteville weather history for previous 24 hours

 ConditionsComfort  
Time TempWeatherWind HumidityBarometerVisibility
8:53 PM
Tue, Aug 4
83 °FSunny.3 mph72%29.91 "Hg10 mi
7:53 PM86 °FSunny.5 mph65%29.90 "Hg10 mi
6:53 PM88 °FSunny.8 mph61%29.89 "Hg10 mi
5:53 PM90 °FSunny.13 mph59%29.89 "Hg10 mi
4:53 PM93 °FSunny.No wind46%29.89 "Hg10 mi
3:53 PM93 °FSunny.8 mph46%29.90 "Hg10 mi
2:53 PM92 °FScattered clouds.12 mph52%29.92 "Hg10 mi
1:53 PM93 °FScattered clouds.12 mph49%29.92 "Hg10 mi
12:53 PM91 °FPassing clouds.12 mph54%29.95 "Hg10 mi
11:53 AM87 °FPassing clouds.9 mph63%29.96 "Hg10 mi
10:53 AM86 °FScattered clouds.9 mph63%29.98 "Hg10 mi
9:53 AM83 °FBroken clouds.3 mph74%29.97 "Hg10 mi
8:53 AM79 °FPartly sunny.5 mph88%29.98 "Hg10 mi
7:53 AM76 °FFog.5 mph94%29.97 "Hg6 mi
6:53 AM73 °FFog.5 mph94%29.96 "Hg5 mi
5:53 AM73 °FFog.No wind94%29.95 "Hg5 mi
4:53 AM74 °FClear.No wind94%29.92 "Hg9 mi
3:53 AM74 °FClear.No wind94%29.93 "Hg9 mi
2:53 AM75 °FPassing clouds.No wind94%29.93 "Hg10 mi
1:53 AM76 °FClear.5 mph91%29.94 "Hg10 mi
12:53 AM76 °FClear.5 mph94%29.95 "Hg10 mi
11:53 PM
Mon, Aug 3
77 °FPassing clouds.5 mph88%29.95 "Hg10 mi
10:53 PM78 °FClear.6 mph82%29.93 "Hg10 mi
Weather by CustomWeather, © 2015

See weather overviewHow to use our weather pages